Location: Bremen
(53.0793°N, 8.8017°E)
Time: 00:15:36
(UTC+02:00)

Altair - Pass Details

Date: 20 April 2024
Orbit: 1501 x 1682 km, 47.2° (Epoch: 19 May)

Event Time Altitude Azimuth Distance (km) Brightness Sun altitude
Rises 21:30:08 0° 241° (WSW) 4,910 10.6 -8.3°
Reaches altitude 10° 21:33:23 10° 238° (WSW) 3,908 10.0 -8.7°
Maximum altitude 21:43:02 56° 164° (SSE) 1,878 7.7 -9.9°
Drops below altitude 10° 21:52:20 10° 89° (E) 3,783 9.1 -11.0°
Sets 21:55:26 0° 86° (E) 4,744 9.6 -11.3°
